SAS447 ESGG-EKCH

Flight info

Callsign SAS447
Flight time 0h 33m
Altitude 19000
Route TOPLA L996 ERNOV
Aircraft A320/M-SDE3FGHIJ1RWXYZ/ALB1

Departure

Time 2026-05-07 20:36
Airport Göteborg Landvetter Airport (ESGG)

Arrival

Time 2026-05-07 21:10
Airport Copenhagen Kastrup Airport (EKCH)
Time Latitude Longitude Altitude Speed Heading
2026-05-07 20:11 57.67047 12.29580 533 ft 0 kts 116°
2026-05-07 20:22 57.67047 12.29579 533 ft 0 kts 116°
2026-05-07 20:27 57.67052 12.29561 529 ft 3 kts 119°
2026-05-07 20:27 57.67061 12.29530 529 ft 3 kts 119°
2026-05-07 20:27 57.67072 12.29499 528 ft 3 kts 135°
2026-05-07 20:27 57.67087 12.29478 527 ft 3 kts 161°
2026-05-07 20:28 57.67106 12.29472 525 ft 3 kts 192°
2026-05-07 20:28 57.67120 12.29481 525 ft 1 kts 206°
2026-05-07 20:28 57.67125 12.29485 525 ft 1 kts 206°
2026-05-07 20:30 57.67120 12.29480 525 ft 2 kts 206°
2026-05-07 20:30 57.67088 12.29452 525 ft 8 kts 206°
2026-05-07 20:31 57.67022 12.29391 526 ft 13 kts 206°
2026-05-07 20:31 57.66996 12.29249 521 ft 17 kts 301°
2026-05-07 20:31 57.67038 12.29051 526 ft 16 kts 262°
2026-05-07 20:31 57.66944 12.28927 526 ft 18 kts 206°
2026-05-07 20:32 57.66818 12.28811 520 ft 23 kts 206°
2026-05-07 20:32 57.66663 12.28673 517 ft 26 kts 206°
2026-05-07 20:32 57.66533 12.28552 520 ft 20 kts 206°
2026-05-07 20:32 57.66406 12.28435 522 ft 20 kts 206°
2026-05-07 20:33 57.66269 12.28312 518 ft 24 kts 207°
2026-05-07 20:33 57.66111 12.28167 515 ft 27 kts 206°
2026-05-07 20:33 57.65941 12.28011 518 ft 28 kts 206°
2026-05-07 20:33 57.65771 12.27859 523 ft 27 kts 205°
2026-05-07 20:34 57.65596 12.27695 522 ft 30 kts 207°
2026-05-07 20:34 57.65407 12.27518 520 ft 32 kts 206°
2026-05-07 20:34 57.65207 12.27336 521 ft 33 kts 206°
2026-05-07 20:34 57.65024 12.27163 520 ft 20 kts 223°
2026-05-07 20:35 57.65027 12.27059 524 ft 5 kts 317°
2026-05-07 20:35 57.65043 12.27036 525 ft 2 kts 329°
2026-05-07 20:35 57.65080 12.27008 527 ft 12 kts 340°
2026-05-07 20:35 57.65209 12.26996 527 ft 23 kts 24°
2026-05-07 20:36 57.65476 12.27242 522 ft 75 kts 26°
2026-05-07 20:36 57.66124 12.27827 519 ft 129 kts 26°
2026-05-07 20:36 57.67057 12.28684 604 ft 162 kts 25°
2026-05-07 20:36 57.68058 12.29612 1202 ft 160 kts 25°
2026-05-07 20:37 57.69059 12.30550 1776 ft 164 kts 26°
2026-05-07 20:37 57.69974 12.31880 2102 ft 179 kts 57°
2026-05-07 20:37 57.70276 12.34177 2463 ft 192 kts 98°
2026-05-07 20:37 57.69877 12.36619 2926 ft 201 kts 110°
2026-05-07 20:38 57.69384 12.39136 3382 ft 213 kts 111°
2026-05-07 20:38 57.68835 12.41759 4037 ft 217 kts 117°
2026-05-07 20:38 57.67929 12.44007 4792 ft 219 kts 142°
2026-05-07 20:38 57.66520 12.45282 5206 ft 238 kts 170°
2026-05-07 20:39 57.64800 12.45664 5686 ft 257 kts 174°
2026-05-07 20:39 57.63006 12.46050 6499 ft 262 kts 174°
2026-05-07 20:39 57.61212 12.46461 7292 ft 265 kts 174°
2026-05-07 20:39 57.59351 12.46583 8046 ft 270 kts 180°
2026-05-07 20:40 57.57452 12.46595 8801 ft 276 kts 180°
2026-05-07 20:40 57.55515 12.46610 9552 ft 281 kts 180°
2026-05-07 20:40 57.53539 12.46593 10270 ft 286 kts 185°
2026-05-07 20:40 57.51527 12.46069 10652 ft 303 kts 191°
2026-05-07 20:41 57.49373 12.45377 10869 ft 323 kts 191°
2026-05-07 20:41 57.47125 12.44642 11416 ft 331 kts 191°
2026-05-07 20:41 57.44845 12.43895 12071 ft 335 kts 191°
2026-05-07 20:41 57.42568 12.43152 12736 ft 339 kts 191°
2026-05-07 20:42 57.40235 12.42392 13410 ft 342 kts 191°
2026-05-07 20:42 57.37875 12.41628 14065 ft 346 kts 191°
2026-05-07 20:42 57.35491 12.40861 14654 ft 349 kts 191°
2026-05-07 20:42 57.33086 12.40089 15254 ft 352 kts 191°
2026-05-07 20:43 57.30660 12.39312 15829 ft 355 kts 191°
2026-05-07 20:43 57.28213 12.38531 16409 ft 358 kts 191°
2026-05-07 20:43 57.25746 12.37748 16994 ft 361 kts 191°
2026-05-07 20:43 57.23256 12.36961 17585 ft 364 kts 191°
2026-05-07 20:44 57.20783 12.36176 18167 ft 367 kts 191°
2026-05-07 20:44 57.18251 12.35372 18714 ft 371 kts 191°
2026-05-07 20:44 57.15696 12.34564 19065 ft 374 kts 191°
2026-05-07 20:44 57.13107 12.34174 19151 ft 373 kts 180°
2026-05-07 20:45 57.10534 12.34626 19172 ft 371 kts 173°
2026-05-07 20:45 57.07983 12.35269 19171 ft 370 kts 173°
2026-05-07 20:45 57.05438 12.35909 19171 ft 369 kts 173°
2026-05-07 20:45 57.02925 12.36534 19165 ft 369 kts 173°
2026-05-07 20:46 57.00377 12.37164 19172 ft 369 kts 173°
2026-05-07 20:46 56.97828 12.37794 19171 ft 369 kts 173°
2026-05-07 20:46 56.95282 12.38423 19171 ft 369 kts 173°
2026-05-07 20:46 56.92736 12.39054 19171 ft 369 kts 173°
2026-05-07 20:47 56.90188 12.39683 19171 ft 370 kts 173°
2026-05-07 20:47 56.87637 12.40312 19172 ft 370 kts 173°
2026-05-07 20:47 56.85088 12.40939 19174 ft 370 kts 173°
2026-05-07 20:47 56.82536 12.41569 19175 ft 370 kts 173°
2026-05-07 20:48 56.80020 12.42193 19173 ft 370 kts 173°
2026-05-07 20:48 56.77465 12.42824 19174 ft 370 kts 173°
2026-05-07 20:48 56.74916 12.43442 19170 ft 370 kts 173°
2026-05-07 20:48 56.72359 12.44058 19169 ft 371 kts 173°
2026-05-07 20:49 56.69802 12.44679 19172 ft 371 kts 173°
2026-05-07 20:49 56.67240 12.45307 19174 ft 372 kts 173°
2026-05-07 20:49 56.64677 12.45937 19177 ft 372 kts 173°
2026-05-07 20:49 56.62145 12.46554 19177 ft 374 kts 173°
2026-05-07 20:50 56.59561 12.47178 19164 ft 373 kts 173°
2026-05-07 20:50 56.57029 12.47786 18936 ft 363 kts 174°
2026-05-07 20:50 56.54538 12.48386 18555 ft 359 kts 173°
2026-05-07 20:50 56.52073 12.48981 18117 ft 356 kts 173°
2026-05-07 20:51 56.49628 12.49569 17667 ft 353 kts 173°
2026-05-07 20:51 56.47208 12.50152 17161 ft 348 kts 173°
2026-05-07 20:51 56.44822 12.50728 16358 ft 344 kts 173°
2026-05-07 20:51 56.42448 12.51304 15774 ft 344 kts 173°
2026-05-07 20:52 56.40121 12.51865 15386 ft 340 kts 173°
2026-05-07 20:52 56.37785 12.52427 14965 ft 338 kts 173°
2026-05-07 20:52 56.35466 12.52983 14537 ft 333 kts 173°
2026-05-07 20:52 56.33193 12.53527 14002 ft 324 kts 173°
2026-05-07 20:53 56.31007 12.54046 13597 ft 312 kts 173°
2026-05-07 20:53 56.28863 12.54552 13227 ft 309 kts 173°
2026-05-07 20:53 56.26737 12.55054 12863 ft 307 kts 173°
2026-05-07 20:53 56.24626 12.55553 12510 ft 305 kts 172°
2026-05-07 20:54 56.22552 12.56044 12153 ft 303 kts 172°
2026-05-07 20:54 56.20465 12.56541 11790 ft 302 kts 172°
2026-05-07 20:54 56.18389 12.57036 11471 ft 299 kts 172°
2026-05-07 20:54 56.16333 12.57408 11118 ft 298 kts 179°
2026-05-07 20:55 56.14277 12.57408 10857 ft 293 kts 179°
2026-05-07 20:55 56.12249 12.57418 10647 ft 290 kts 179°
2026-05-07 20:55 56.10235 12.57440 10423 ft 289 kts 179°
2026-05-07 20:55 56.08230 12.57465 10196 ft 288 kts 178°
2026-05-07 20:56 56.06230 12.57489 9956 ft 287 kts 178°
2026-05-07 20:56 56.04238 12.57509 9728 ft 286 kts 179°
2026-05-07 20:56 56.02275 12.57526 9505 ft 285 kts 178°
2026-05-07 20:56 56.00295 12.57545 9281 ft 284 kts 178°
2026-05-07 20:57 55.98328 12.57566 9057 ft 283 kts 178°
2026-05-07 20:57 55.96363 12.57588 8835 ft 282 kts 178°
2026-05-07 20:57 55.94407 12.57608 8616 ft 280 kts 179°
2026-05-07 20:57 55.92460 12.57625 8398 ft 280 kts 179°
2026-05-07 20:58 55.90513 12.57644 8178 ft 279 kts 179°
2026-05-07 20:58 55.88573 12.57657 7959 ft 278 kts 180°
2026-05-07 20:58 55.86686 12.57206 7739 ft 278 kts 194°
2026-05-07 20:58 55.84876 12.55994 7526 ft 278 kts 202°
2026-05-07 20:59 55.83103 12.54648 7303 ft 277 kts 202°
2026-05-07 20:59 55.81332 12.53311 7083 ft 276 kts 202°
2026-05-07 20:59 55.79567 12.51980 6864 ft 275 kts 202°
2026-05-07 20:59 55.77815 12.50663 6648 ft 273 kts 202°
2026-05-07 21:00 55.76069 12.49357 6422 ft 272 kts 202°
2026-05-07 21:00 55.74322 12.48050 6205 ft 272 kts 202°
2026-05-07 21:00 55.72580 12.46748 5985 ft 272 kts 202°
2026-05-07 21:00 55.70831 12.45444 5771 ft 272 kts 203°
2026-05-07 21:01 55.69088 12.44146 5556 ft 271 kts 203°
2026-05-07 21:01 55.67378 12.42868 5342 ft 270 kts 203°
2026-05-07 21:01 55.65651 12.41525 5124 ft 272 kts 209°
2026-05-07 21:01 55.64136 12.39545 4924 ft 272 kts 221°
2026-05-07 21:02 55.62710 12.37350 4705 ft 271 kts 222°
2026-05-07 21:02 55.61305 12.35149 4495 ft 269 kts 222°
2026-05-07 21:02 55.59906 12.32954 4286 ft 268 kts 222°
2026-05-07 21:02 55.58513 12.30772 4078 ft 267 kts 222°
2026-05-07 21:03 55.57126 12.28602 3871 ft 266 kts 222°
2026-05-07 21:03 55.55761 12.26469 3669 ft 265 kts 222°
2026-05-07 21:03 55.54385 12.24322 3463 ft 264 kts 222°
2026-05-07 21:03 55.53007 12.22194 3251 ft 263 kts 219°
2026-05-07 21:04 55.51392 12.20792 3040 ft 259 kts 191°
2026-05-07 21:04 55.49633 12.20948 2800 ft 254 kts 160°
2026-05-07 21:04 55.48164 12.22563 2539 ft 248 kts 136°
2026-05-07 21:04 55.46953 12.24705 2274 ft 245 kts 133°
2026-05-07 21:05 55.45923 12.27029 2071 ft 237 kts 114°
2026-05-07 21:05 55.45482 12.29730 2019 ft 226 kts 99°
2026-05-07 21:05 55.45232 12.32423 2022 ft 225 kts 95°
2026-05-07 21:05 55.45386 12.35124 2026 ft 223 kts 69°
2026-05-07 21:06 55.46166 12.37443 2026 ft 221 kts 48°
2026-05-07 21:06 55.47171 12.39495 2027 ft 220 kts 48°
2026-05-07 21:06 55.48136 12.41467 2018 ft 205 kts 48°
2026-05-07 21:06 55.49029 12.43293 2019 ft 190 kts 48°
2026-05-07 21:07 55.49878 12.45024 2054 ft 184 kts 48°
2026-05-07 21:07 55.50696 12.46694 2018 ft 174 kts 48°
2026-05-07 21:07 55.51491 12.48245 2015 ft 170 kts 44°
2026-05-07 21:07 55.52346 12.49695 1847 ft 170 kts 41°
2026-05-07 21:08 55.53223 12.51090 1631 ft 169 kts 40°
2026-05-07 21:08 55.54105 12.52464 1405 ft 169 kts 40°
2026-05-07 21:08 55.54965 12.53793 1187 ft 155 kts 40°
2026-05-07 21:08 55.55746 12.54996 972 ft 144 kts 39°
2026-05-07 21:09 55.56480 12.56159 751 ft 140 kts 41°
2026-05-07 21:09 55.57202 12.57289 588 ft 138 kts 39°
2026-05-07 21:09 55.57934 12.58377 394 ft 137 kts 38°
2026-05-07 21:09 55.58647 12.59467 241 ft 135 kts 40°
2026-05-07 21:10 55.59344 12.60545 49 ft 134 kts 39°
2026-05-07 21:10 55.59962 12.61479 22 ft 95 kts 41°
2026-05-07 21:10 55.60326 12.62054 21 ft 42 kts 41°
2026-05-07 21:10 55.60514 12.62286 24 ft 27 kts 20°
2026-05-07 21:11 55.60702 12.62367 23 ft 29 kts 11°
2026-05-07 21:11 55.60867 12.62520 24 ft 17 kts 41°
2026-05-07 21:11 55.61074 12.62836 23 ft 22 kts 43°
2026-05-07 21:12 55.61192 12.63024 23 ft 24 kts 41°
2026-05-07 21:12 55.61323 12.63223 23 ft 26 kts 40°
2026-05-07 21:12 55.61461 12.63437 23 ft 28 kts 41°
2026-05-07 21:12 55.61610 12.63666 25 ft 29 kts 41°
2026-05-07 21:13 55.61768 12.63910 23 ft 31 kts 41°
2026-05-07 21:13 55.61943 12.64142 21 ft 33 kts 24°
2026-05-07 21:13 55.62156 12.64305 20 ft 34 kts 25°
2026-05-07 21:13 55.62344 12.64428 20 ft 20 kts 14°
2026-05-07 21:14 55.62465 12.64522 21 ft 19 kts 68°
2026-05-07 21:14 55.62506 12.64651 21 ft 13 kts
2026-05-07 21:14 55.62605 12.64665 21 ft 16 kts 11°
2026-05-07 21:14 55.62642 12.64590 21 ft 9 kts 282°
2026-05-07 21:15 55.62647 12.64554 22 ft 0 kts 282°